This is the latest recevied weather packets stored in our database for station/object K7KAR-2. If no packets are shown the sender has not sent any weather packets the latest 10 day(s).
| Time | Temp. | Humidity | Pressure | Rain* | Wind** | Luminosity | Snow |
|---|---|---|---|---|---|---|---|
| 1777552389 | -0.56° C | 57% | 1021.9 hPa | 0 mm | - | 28 W/m² | - |
| 1777552085 | -1.11° C | 58% | 1022 hPa | 0 mm | - | 23 W/m² | - |
| 1777551783 | -1.11° C | 57% | 1021.9 hPa | 0 mm | - | 18 W/m² | - |
| 1777551480 | -1.11° C | 58% | 1021.6 hPa | 0 mm | - | 12 W/m² | - |
| 1777551176 | -1.11° C | 57% | 1021.8 hPa | 0 mm | - | 9 W/m² | - |
| 1777550874 | -1.11° C | 57% | 1021.9 hPa | 0 mm | - | 6 W/m² | - |
| 1777550570 | -1.11° C | 57% | 1022 hPa | 0 mm | - | 3 W/m² | - |
| 1777550266 | -1.11° C | 58% | 1021.9 hPa | 0 mm | - | 1 W/m² | - |
| 1777549963 | -1.11° C | 57% | 1022.3 hPa | 0 mm | - | 0 W/m² | - |
| 1777549659 | -1.11° C | 58% | 1022.1 hPa | 0 mm | - | 0 W/m² | - |
| 1777549354 | -1.11° C | 57% | 1022 hPa | 0 mm | - | 0 W/m² | - |
| 1777549052 | -1.11° C | 58% | 1022.1 hPa | 0 mm | - | 0 W/m² | - |
| 1777548748 | -1.11° C | 58% | 1022.1 hPa | 0 mm | - | 0 W/m² | - |
| 1777548446 | -1.11° C | 58% | 1022 hPa | 0 mm | - | 0 W/m² | - |
| 1777548142 | -1.11° C | 58% | 1022.1 hPa | 0 mm | - | 0 W/m² | - |
| 1777547838 | -1.11° C | 56% | 1022.1 hPa | 0 mm | - | 0 W/m² | - |
| 1777547534 | -1.11° C | 57% | 1022.1 hPa | 0 mm | - | 0 W/m² | - |
| 1777547233 | -1.11° C | 57% | 1021.9 hPa | 0 mm | - | 0 W/m² | - |
| 1777546929 | -0.56° C | 56% | 1022 hPa | 0 mm | - | 0 W/m² | - |
| 1777546626 | -0.56° C | 55% | 1022.1 hPa | 0 mm | - | 0 W/m² | - |
| 1777546322 | -1.11° C | 56% | 1022.2 hPa | 0 mm | - | 0 W/m² | - |
| 1777546020 | -0.56° C | 55% | 1021.8 hPa | 0 mm | - | 0 W/m² | - |
| 1777545715 | -0.56° C | 53% | 1022 hPa | 0 mm | - | 0 W/m² | - |
| 1777545413 | 0° C | 54% | 1021.8 hPa | 0 mm | - | 0 W/m² | - |
| 1777545110 | -0.56° C | 54% | 1022 hPa | 0 mm | - | 0 W/m² | - |
* Rain latest hour (hover to see other rain measurements)
** Current wind speed in m/s (hover to see current wind gust speed)